Location: Unspecified
(33.6682°S, 0.0000°E)
Time: 22:12:38
(UTC+00:00)

Tiros 1 despin weight - Pass Details

Date: 24 June 2019
Orbit: 594 x 642 km, 48.2° (Epoch: 17 July)

Event Time Altitude Azimuth Distance (km) Brightness Sun altitude
Rises 17:31:00 0° 241° (WSW) 2,967 ? -6.6°
Reaches altitude 10° 17:33:33 10° 251° (WSW) 2,049 ? -7.1°
Maximum altitude 17:37:44 31° 313° (NW) 1,116 ? -7.9°
Drops below altitude 10° 17:41:50 10° 15° (NNE) 2,015 ? -8.7°
Sets 17:44:20 0° 25° (NNE) 2,909 ? -9.2°
